Gassville, AR

12:33 AM CST on December 06, 2016 (GMT -0600)
Baxter County Regional

Weather History for KBPK - May, 2013

Change the Weather History Date:

Monday, May 27, 2013

  Actual Average (KHRO) Record (KHRO)
Temperature  
Mean Temperature 73 °F 68 °F  
Max Temperature 82 °F 79 °F 97 °F (1926)
Min Temperature 64 °F 58 °F 35 °F (1901)
Degree Days  
Heating Degree Days 0 1  
Month to date heating degree days 73  
Since 1 July heating degree days 3994  
Cooling Degree Days 8 5  
Month to date cooling degree days 83  
Year to date cooling degree days 120  
Growing Degree Days 23 (Base 50)    
Moisture  
Dew Point 62 °F    
Average Humidity 67    
Maximum Humidity 87    
Minimum Humidity 49    
Precipitation  
Precipitation 0.00 in 0.13 in 1.76 in (2000)
Month to date precipitation 4.12  
Year to date precipitation 17.43  
Snow  
Snow 0.00 in 0.00 in - ()
Month to date snowfall 0.0  
Since 1 July snowfall 11.5  
Snow Depth -    
Sea Level Pressure  
Sea Level Pressure 29.93 in    
Wind  
Wind Speed 6 mph (South)    
Max Wind Speed 13 mph    
Max Gust Speed 20 mph    
Visibility 9 miles    
Events      
T = Trace of Precipitation, MM = Missing Value Source: NWS Daily Summary

Daily Weather History Graph

Daily Weather History Graph

Search for Another Location

Airport or City:

Trip Planner

Search our weather history database for the weather conditions in past years. The results will help you decide how hot, cold, wet, or windy it might be!

Date:

Astronomy

May. 27, 2013 Rise Set
Actual Time 5:55 AM CDT 8:19 PM CDT
Civil Twilight 5:25 AM CDT 8:48 PM CDT
Nautical Twilight 4:49 AM CDT 9:25 PM CDT
Astronomical Twilight 4:09 AM CDT 10:05 PM CDT
Moon 11:00 PM CDT (5/27) 8:32 AM CDT (5/27)
Length of Visible Light 15h 22m
Length of Day
14h 23m
Waning Gibbous, 91% of the Moon is Illuminated
May 27
Waning Gibbous
May 31
Last Quarter
Jun 8
New
Jun 16
First Quarter
Jun 23
Full

Hourly Weather History & Observations

Time (CDT) Temp. Heat Index Dew Point Humidity Pressure Visibility Wind Dir Wind Speed Gust Speed Precip Events Conditions
12:53 AM 66.0 °F - 60.1 °F 81% 30.02 in 9.0 mi South 3.5 mph - N/A   Clear
1:53 AM 64.9 °F - 60.1 °F 84% 30.00 in 8.0 mi SSE 3.5 mph - N/A   Clear
2:53 AM 64.0 °F - 60.1 °F 87% 30.01 in 8.0 mi Calm Calm - N/A   Clear
3:53 AM 64.9 °F - 61.0 °F 87% 29.99 in 8.0 mi SSE 5.8 mph - N/A   Overcast
4:53 AM 66.0 °F - 61.0 °F 84% 29.99 in 9.0 mi South 5.8 mph - N/A   Overcast
5:53 AM 66.0 °F - 61.0 °F 84% 30.00 in 8.0 mi ESE 3.5 mph - N/A   Overcast
6:53 AM 66.9 °F - 62.1 °F 84% 29.98 in 7.0 mi SSE 5.8 mph - N/A   Mostly Cloudy
7:53 AM 70.0 °F - 62.1 °F 76% 29.97 in 8.0 mi SSE 6.9 mph - N/A   Clear
8:53 AM 73.9 °F - 64.0 °F 71% 29.97 in 8.0 mi SSW 9.2 mph - N/A   Clear
9:53 AM 77.0 °F - 64.0 °F 64% 29.96 in 8.0 mi South 10.4 mph 17.3 mph N/A   Clear
10:53 AM 79.0 °F - 66.0 °F 64% 29.94 in 8.0 mi South 10.4 mph 19.6 mph N/A   Partly Cloudy
11:53 AM 81.0 °F 82.5 °F 64.0 °F 56% 29.94 in 9.0 mi South 11.5 mph - N/A   Partly Cloudy
12:53 PM 81.0 °F 82.2 °F 63.0 °F 54% 29.94 in 9.0 mi South 11.5 mph 19.6 mph N/A   Clear
1:53 PM 82.0 °F 83.1 °F 63.0 °F 52% 29.94 in 9.0 mi South 10.4 mph 17.3 mph N/A   Partly Cloudy
2:53 PM 82.0 °F 82.7 °F 61.0 °F 49% 29.92 in 9.0 mi SSW 9.2 mph 18.4 mph N/A   Partly Cloudy
3:53 PM 81.0 °F 81.7 °F 61.0 °F 50% 29.90 in 9.0 mi South 12.7 mph 18.4 mph N/A   Clear
4:53 PM 80.1 °F 81.2 °F 62.1 °F 54% 29.88 in 9.0 mi South 10.4 mph 18.4 mph N/A   Clear
5:53 PM 79.0 °F - 62.1 °F 56% 29.88 in 9.0 mi South 8.1 mph 17.3 mph N/A   Clear
6:53 PM 78.1 °F - 62.1 °F 58% 29.86 in 9.0 mi South 10.4 mph - N/A   Clear
7:53 PM 75.9 °F - 61.0 °F 60% 29.86 in 8.0 mi South 8.1 mph - N/A   Clear
8:53 PM 73.9 °F - 61.0 °F 64% 29.86 in 10.0 mi SSE 5.8 mph - N/A   Clear
9:53 PM 73.9 °F - 62.1 °F 66% 29.85 in 10.0 mi South 9.2 mph - N/A   Clear
10:53 PM 73.9 °F - 62.1 °F 66% 29.87 in 9.0 mi South 8.1 mph - N/A   Clear
11:53 PM 73.9 °F - 62.1 °F 66% 29.85 in 9.0 mi South 10.4 mph 17.3 mph N/A   Clear